Regional Weather Roundup
Issued by NWS

Home | Current Version | Previous Version | Text Only | Print | Product List | Glossary Off
Versions: 1 2 3 4 5 6 7 8 9 10 11 12 13 14 15 16 17 18 19 20 21 22 23 24 25 26 27 28 29 30 31 32 33 34 35 36 37 38 39 40 41 42 43 44 45 46 47 48 49 50

000
ASUS43 KLSX 301310
RWRMO

WEATHER SUMMARY FOR MISSOURI
NATIONAL WEATHER SERVICE SPRINGFIELD MO
800 AM CDT SAT JUL 30 2016

NOTE: "FAIR" INDICATES FEW OR NO CLOUDS BELOW 12,000 FEET WITH NO
       SIGNIFICANT WEATHER AND/OR OBSTRUCTIONS TO VISIBILITY.
       CURRENT SKY AND/OR WEATHER CONDITIONS ARE NOT AVAILABLE FOR
       CHILLICOTHE AND FARMINGTON.

MOZ001>031-035>038-043-044-053-054-301400-
...NORTHERN AND WESTERN MISSOURI...

CITY           SKY/WX    TMP DP  RH WIND       PRES   REMARKS
KANSAS CTY INT MOSUNNY   68  62  81 NE6       30.02S
KANSAS C DTWN  SUNNY     71  64  78 NE7       30.01S
LEE`S SUMMIT   SUNNY     69  64  84 NE6       30.02S
ST JOSEPH      PTSUNNY   64  63  96 CALM      30.02S
CHILLICOTHE      N/A     70  65  84 CALM      30.03S
KIRKSVILLE     PTSUNNY   69  65  86 NW3       30.01F

$$
MOZ066>068-077>081-088>096-101>105-301400-
...SOUTHWEST MISSOURI...

CITY           SKY/WX    TMP DP  RH WIND       PRES   REMARKS
SPRINGFIELD    SUNNY     72  70  93 S3        30.02R
JOPLIN         SUNNY     74  71  91 CALM      30.01S
BRANSON        CLOUDY    72  72 100 CALM      30.05R FOG

$$
MOZ032>034-039>042-045>050-055>058-069>072-301400-
...CENTRAL MISSOURI...

CITY           SKY/WX    TMP DP  RH WIND       PRES   REMARKS
COLUMBIA       SUNNY     70  66  87 N6        30.01R
JEFFERSON CITY MOSUNNY   70  67  90 NW3       30.00S
ROLLA          SUNNY     71  68  90 W3        30.01R
SEDALIA        SUNNY     69  65  86 CALM      30.03R
WHITEMAN AFB   SUNNY     68  68 100 NE5       30.01R
OSAGE BEACH    MOSUNNY   71  69  93 CALM      30.02R

$$
MOZ051-052-059>065-301400-
...EAST CENTRAL MISSOURI...

CITY           SKY/WX    TMP DP  RH WIND       PRES   REMARKS
ST LOUIS INTL  MOSUNNY   77  67  71 NW5       29.99R
SPIRIT OF STL  SUNNY     73  69  87 CALM      29.98R
ST CHARLES     SUNNY     73  70  90 CALM      29.97S

$$
MOZ072>076-082>087-097>100-106>115-301400-
...SOUTH CENTRAL AND SOUTHEAST MISSOURI...

CITY           SKY/WX    TMP DP  RH WIND       PRES   REMARKS
CAPE GIRARDEAU FOG       70  70 100 W6        29.99R VSB 1/4
FARMINGTON     SUNNY     73  70  90 W3        30.01S
POPLAR BLUFF   FOG       71  71 100 S3        29.99R VSB 1/4
WEST PLAINS    SUNNY     74  69  85 N3        30.04S

$$



USA.gov is the U.S. government's official web portal to all federal, state and local government web resources and services.